If you wish to contribute or participate in the discussions about articles you are invited to join SKYbrary as a registered user

Brussels South Charleroi Airport

From SKYbrary Wiki
EBCI
Airport
ICAO: EBCI
Summary
Name Brussels South Charleroi Airport
Region Europe
Territory Belgium BE.gif
Location Charleroi
Main city served
Coordinates 50° 27' 45.7017", 4° 27' 42.252"
Runways
Designator Length Width Surface
7/25 2550 m8,366.142 ft 45 m147.638 ft ASP
METAR
Observation EBCI 032020Z 23008KT 9999 FEW035 13/11 Q1005 RERA NOSIG
Station Charleroi / Gosselies
Date/Time 03 May 2015 20:20:00
Wind direction 230°
Wind speed 08 kts
Lowest cloud amount few clouds
Temperature 13°C
Dew point 11°C
Humidity 87%
QNH 1005 hPa
Weather condition n/a

Charleroi Brussels South Airport

ICAO: EBCI IATA: CRL

Description

Charleroi airport is an international airport located in Gosselies, 46 km24.838 nm
46,000 m
150,918.635 ft
south of Brussels.

Climatology

Temperate Marine climate/Oceanic climate (Köppen climate classification Cfb). Moderately cool summer and comparatively warm winter with a temperature range of only 14°C287.15 K
57.2 °F
516.87 °R
. Prevailing south-westerly winds from the Atlantic Ocean.

Maps

Terrain

Loading map...

Airport Layout

Loading map...


Accidents & Serious Incidents at or in vicinity of EBCI

None on SKYbrary